Location: Newark
(48.1500°N, 13.1167°E)
Time: 01:26:51
(UTC+00:00)

ISS - Pass Details

Date: 21 September 2021
Orbit: 417 x 423 km, 51.6° (Epoch: 24 October)

Event Time Altitude Azimuth Distance (km) Brightness Sun altitude
Rises 19:38:38 0° 275° (W) 2,364 1.1 -24.8°
Reaches altitude 10° 19:40:48 10° 281° (WNW) 1,501 -0.1 -25.1°
Enters shadow 19:42:55 31° 306° (NW) 758 -1.9 -25.4°
